Station Historical Data
Daily Summary for February 13, 2017 Units:  English    Metric   Both
« Previous Day
Next Day »
Daily Weekly Monthly Yearly Custom
  High: Low: Average:
Temperature: 30.8 °F 23.8 °F 28.8 °F
Dew Point: 23.3 °F 19.2 °F 21.4 °F
Humidity: 83% 67% 74%
Wind Speed: 17.0mph 0.0mph 6.4mph
Wind Gust: 25.0mph - -
Wind- - WNW
Pressure: 30.16 in 29.88 in -
Precipitation: 0.00 in    
Historical Graphs
 
 
Tabular Data for February 13, 2017
Time Temperature Dew Point Pressure Wind Wind Speed Wind Gust Humidity Rainfall Rate (Hourly)
00:04 30.1 °F 23.1 °F 29.88 in WNW 14.0 mph 22.0 mph 75% 0.00 in
00:09 30.0 °F 22.7 °F 29.88 in West 17.0 mph 21.0 mph 74% 0.00 in
00:14 30.0 °F 23.0 °F 29.88 in WNW 7.0 mph 22.0 mph 75% 0.00 in
00:19 29.9 °F 22.6 °F 29.88 in WNW 11.0 mph 22.0 mph 74% 0.00 in
00:24 29.8 °F 22.5 °F 29.88 in West 11.0 mph 22.0 mph 74% 0.00 in
00:29 29.8 °F 22.5 °F 29.89 in West 10.0 mph 20.0 mph 74% 0.00 in
00:34 29.7 °F 22.7 °F 29.89 in WNW 7.0 mph 19.0 mph 75% 0.00 in
00:39 29.6 °F 22.6 °F 29.89 in WSW 14.0 mph 19.0 mph 75% 0.00 in
00:44 29.6 °F 22.3 °F 29.89 in West 9.0 mph 19.0 mph 74% 0.00 in
00:49 29.5 °F 22.6 °F 29.89 in WNW 11.0 mph 20.0 mph 75% 0.00 in
00:54 29.5 °F 22.2 °F 29.89 in West 10.0 mph 20.0 mph 74% 0.00 in
00:59 29.4 °F 22.1 °F 29.90 in West 11.0 mph 25.0 mph 74% 0.00 in
01:04 29.4 °F 22.1 °F 29.90 in West 11.0 mph 25.0 mph 74% 0.00 in
01:09 29.4 °F 22.1 °F 29.90 in WNW 8.0 mph 16.0 mph 74% 0.00 in
01:14 29.3 °F 22.0 °F 29.90 in WNW 11.0 mph 18.0 mph 74% 0.00 in
01:19 29.3 °F 22.4 °F 29.90 in WNW 4.0 mph 16.0 mph 75% 0.00 in
01:24 29.3 °F 22.0 °F 29.90 in West 9.0 mph 18.0 mph 74% 0.00 in
01:29 29.3 °F 22.0 °F 29.91 in West 10.0 mph 19.0 mph 74% 0.00 in
01:34 29.2 °F 21.9 °F 29.91 in West 11.0 mph 21.0 mph 74% 0.00 in
01:39 29.2 °F 22.3 °F 29.91 in West 13.0 mph 19.0 mph 75% 0.00 in
01:44 29.1 °F 22.2 °F 29.91 in WNW 8.0 mph 18.0 mph 75% 0.00 in
01:49 29.1 °F 22.2 °F 29.91 in West 8.0 mph 19.0 mph 75% 0.00 in
01:54 29.1 °F 22.2 °F 29.92 in West 10.0 mph 19.0 mph 75% 0.00 in
01:59 29.1 °F 22.5 °F 29.92 in WNW 9.0 mph 18.0 mph 76% 0.00 in
02:04 29.0 °F 22.4 °F 29.92 in WNW 10.0 mph 24.0 mph 76% 0.00 in
02:09 29.1 °F 22.5 °F 29.92 in WNW 5.0 mph 16.0 mph 76% 0.00 in
02:14 29.0 °F 22.4 °F 29.92 in West 9.0 mph 19.0 mph 76% 0.00 in
02:19 29.0 °F 22.4 °F 29.93 in West 6.0 mph 16.0 mph 76% 0.00 in
02:24 29.0 °F 22.4 °F 29.93 in WNW 13.0 mph 19.0 mph 76% 0.00 in
02:29 29.1 °F 22.5 °F 29.93 in West 9.0 mph 19.0 mph 76% 0.00 in
02:34 29.1 °F 22.8 °F 29.94 in West 7.0 mph 18.0 mph 77% 0.00 in
02:39 29.1 °F 22.8 °F 29.94 in SW 4.0 mph 19.0 mph 77% 0.00 in
02:44 29.1 °F 22.8 °F 29.95 in West 11.0 mph 21.0 mph 77% 0.00 in
02:49 29.2 °F 22.9 °F 29.95 in WNW 10.0 mph 21.0 mph 77% 0.00 in
02:54 29.2 °F 22.9 °F 29.94 in West 9.0 mph 23.0 mph 77% 0.00 in
02:59 29.1 °F 22.8 °F 29.95 in NW 9.0 mph 16.0 mph 77% 0.00 in
03:04 29.2 °F 22.9 °F 29.95 in West 10.0 mph 18.0 mph 77% 0.00 in
03:09 29.2 °F 22.9 °F 29.95 in West 10.0 mph 18.0 mph 77% 0.00 in
03:14 29.2 °F 22.9 °F 29.95 in West 9.0 mph 18.0 mph 77% 0.00 in
03:19 29.2 °F 22.9 °F 29.96 in WNW 17.0 mph 20.0 mph 77% 0.00 in
03:24 29.2 °F 22.9 °F 29.96 in West 15.0 mph 18.0 mph 77% 0.00 in
03:29 29.3 °F 23.0 °F 29.96 in West 8.0 mph 16.0 mph 77% 0.00 in
03:34 29.3 °F 23.0 °F 29.96 in WNW 10.0 mph 19.0 mph 77% 0.00 in
03:39 29.4 °F 23.1 °F 29.96 in NNW 14.0 mph 18.0 mph 77% 0.00 in
03:44 29.3 °F 23.0 °F 29.97 in West 9.0 mph 16.0 mph 77% 0.00 in
03:49 29.4 °F 23.1 °F 29.97 in WNW 6.0 mph 20.0 mph 77% 0.00 in
03:54 29.3 °F 23.0 °F 29.97 in West 11.0 mph 18.0 mph 77% 0.00 in
03:59 29.3 °F 23.0 °F 29.98 in WNW 7.0 mph 17.0 mph 77% 0.00 in
04:04 29.4 °F 23.1 °F 29.98 in West 8.0 mph 17.0 mph 77% 0.00 in
04:09 29.3 °F 23.0 °F 29.98 in West 8.0 mph 15.0 mph 77% 0.00 in
04:14 29.3 °F 23.0 °F 29.98 in West 9.0 mph 19.0 mph 77% 0.00 in
04:19 29.3 °F 23.0 °F 29.98 in West 9.0 mph 19.0 mph 77% 0.00 in
04:24 29.3 °F 23.3 °F 29.99 in WNW 5.0 mph 20.0 mph 78% 0.00 in
04:29 29.3 °F 23.0 °F 29.99 in West 6.0 mph 21.0 mph 77% 0.00 in
04:35 29.3 °F 23.3 °F 29.99 in West 9.0 mph 21.0 mph 78% 0.00 in
04:44 29.2 °F 23.2 °F 30.00 in West 6.0 mph 17.0 mph 78% 0.00 in
04:49 29.2 °F 23.2 °F 30.00 in WNW 10.0 mph 16.0 mph 78% 0.00 in
04:54 29.2 °F 23.2 °F 30.00 in WNW 4.0 mph 13.0 mph 78% 0.00 in
04:59 29.2 °F 23.2 °F 30.01 in West 7.0 mph 13.0 mph 78% 0.00 in
05:04 29.2 °F 23.2 °F 30.01 in West 4.0 mph 13.0 mph 78% 0.00 in
05:09 29.2 °F 23.2 °F 30.01 in West 7.0 mph 13.0 mph 78% 0.00 in
05:14 29.2 °F 23.2 °F 30.02 in WNW 8.0 mph 16.0 mph 78% 0.00 in
05:19 29.2 °F 23.2 °F 30.02 in West 8.0 mph 16.0 mph 78% 0.00 in
05:24 29.2 °F 22.9 °F 30.02 in WSW 11.0 mph 15.0 mph 77% 0.00 in
05:29 29.2 °F 22.9 °F 30.02 in West 6.0 mph 15.0 mph 77% 0.00 in
05:34 29.2 °F 22.9 °F 30.03 in WNW 11.0 mph 13.0 mph 77% 0.00 in
05:39 29.2 °F 22.6 °F 30.03 in WSW 7.0 mph 15.0 mph 76% 0.00 in
05:44 29.2 °F 22.3 °F 30.03 in WNW 8.0 mph 15.0 mph 75% 0.00 in
05:49 29.1 °F 21.8 °F 30.03 in NW 8.0 mph 12.0 mph 74% 0.00 in
05:54 29.2 °F 21.6 °F 30.03 in WNW 8.0 mph 17.0 mph 73% 0.00 in
05:59 29.2 °F 21.6 °F 30.03 in WNW 8.0 mph 17.0 mph 73% 0.00 in
06:04 29.2 °F 21.9 °F 30.03 in WNW 12.0 mph 13.0 mph 74% 0.00 in
06:09 29.2 °F 22.3 °F 30.04 in NW 10.0 mph 14.0 mph 75% 0.00 in
06:14 29.1 °F 22.2 °F 30.04 in West 10.0 mph 15.0 mph 75% 0.00 in
06:19 29.1 °F 22.2 °F 30.04 in West 6.0 mph 15.0 mph 75% 0.00 in
06:24 29.0 °F 22.1 °F 30.04 in West 7.0 mph 16.0 mph 75% 0.00 in
06:29 28.9 °F 22.0 °F 30.05 in West 4.0 mph 16.0 mph 75% 0.00 in
06:34 28.9 °F 22.0 °F 30.05 in NW 7.0 mph 13.0 mph 75% 0.00 in
06:39 28.8 °F 21.6 °F 30.05 in West 8.0 mph 14.0 mph 74% 0.00 in
06:44 28.9 °F 21.7 °F 30.05 in West 10.0 mph 12.0 mph 74% 0.00 in
06:49 28.8 °F 21.2 °F 30.05 in West 8.0 mph 17.0 mph 73% 0.00 in
06:54 28.7 °F 21.1 °F 30.06 in WNW 9.0 mph 19.0 mph 73% 0.00 in
06:59 28.7 °F 20.8 °F 30.06 in NW 11.0 mph 20.0 mph 72% 0.00 in
07:04 28.6 °F 20.7 °F 30.06 in West 7.0 mph 15.0 mph 72% 0.00 in
07:09 28.5 °F 20.6 °F 30.07 in West 8.0 mph 19.0 mph 72% 0.00 in
07:14 28.5 °F 20.6 °F 30.07 in West 7.0 mph 14.0 mph 72% 0.00 in
07:19 28.4 °F 20.5 °F 30.07 in WNW 6.0 mph 19.0 mph 72% 0.00 in
07:24 28.4 °F 20.5 °F 30.07 in WNW 8.0 mph 19.0 mph 72% 0.00 in
07:29 28.3 °F 20.4 °F 30.07 in WNW 8.0 mph 16.0 mph 72% 0.00 in
07:35 28.3 °F 20.4 °F 30.07 in WNW 7.0 mph 15.0 mph 72% 0.00 in
07:44 28.2 °F 20.7 °F 30.08 in WNW 7.0 mph 15.0 mph 73% 0.00 in
07:49 28.2 °F 20.7 °F 30.08 in NW 7.0 mph 13.0 mph 73% 0.00 in
07:54 28.1 °F 20.9 °F 30.09 in West 8.0 mph 17.0 mph 74% 0.00 in
07:59 28.0 °F 20.8 °F 30.09 in WNW 8.0 mph 15.0 mph 74% 0.00 in
08:04 28.0 °F 20.8 °F 30.09 in West 8.0 mph 15.0 mph 74% 0.00 in
08:09 28.0 °F 21.1 °F 30.10 in WNW 9.0 mph 16.0 mph 75% 0.00 in
08:14 27.9 °F 21.3 °F 30.10 in WNW 8.0 mph 16.0 mph 76% 0.00 in
08:19 27.9 °F 21.0 °F 30.10 in WNW 4.0 mph 14.0 mph 75% 0.00 in
08:24 27.9 °F 21.0 °F 30.11 in West 6.0 mph 12.0 mph 75% 0.00 in
08:29 27.8 °F 20.6 °F 30.11 in WNW 4.0 mph 14.0 mph 74% 0.00 in
08:34 27.8 °F 20.6 °F 30.11 in WNW 7.0 mph 14.0 mph 74% 0.00 in
08:39 27.8 °F 20.6 °F 30.11 in WNW 7.0 mph 15.0 mph 74% 0.00 in
08:44 27.7 °F 20.2 °F 30.11 in WNW 2.0 mph 17.0 mph 73% 0.00 in
08:49 27.6 °F 20.4 °F 30.12 in WNW 4.0 mph 12.0 mph 74% 0.00 in
08:54 27.6 °F 20.1 °F 30.12 in NW 10.0 mph 16.0 mph 73% 0.00 in
08:59 27.6 °F 20.1 °F 30.11 in WNW 7.0 mph 16.0 mph 73% 0.00 in
09:04 27.6 °F 20.1 °F 30.11 in WNW 8.0 mph 18.0 mph 73% 0.00 in
09:09 27.5 °F 19.7 °F 30.12 in NW 8.0 mph 18.0 mph 72% 0.00 in
09:14 27.5 °F 20.0 °F 30.12 in West 3.0 mph 13.0 mph 73% 0.00 in
09:19 27.5 °F 20.0 °F 30.12 in WNW 6.0 mph 14.0 mph 73% 0.00 in
09:24 27.5 °F 20.0 °F 30.13 in NW 7.0 mph 14.0 mph 73% 0.00 in
09:29 27.4 °F 19.6 °F 30.13 in NNW 6.0 mph 21.0 mph 72% 0.00 in
09:34 27.4 °F 19.6 °F 30.13 in WNW 7.0 mph 21.0 mph 72% 0.00 in
09:39 27.4 °F 19.6 °F 30.13 in NNW 7.0 mph 15.0 mph 72% 0.00 in
09:44 27.5 °F 19.7 °F 30.13 in WNW 13.0 mph 13.0 mph 72% 0.00 in
09:49 27.6 °F 19.4 °F 30.13 in WNW 4.0 mph 22.0 mph 71% 0.00 in
09:54 27.7 °F 19.5 °F 30.14 in NW 8.0 mph 13.0 mph 71% 0.00 in
09:59 27.9 °F 20.0 °F 30.14 in NW 6.0 mph 13.0 mph 72% 0.00 in
10:04 28.0 °F 19.8 °F 30.14 in WNW 3.0 mph 12.0 mph 71% 0.00 in
10:09 28.2 °F 20.0 °F 30.14 in WNW 6.0 mph 12.0 mph 71% 0.00 in
10:14 28.4 °F 20.2 °F 30.14 in WNW 6.0 mph 12.0 mph 71% 0.00 in
10:19 28.5 °F 20.3 °F 30.14 in WNW 6.0 mph 13.0 mph 71% 0.00 in
10:24 28.5 °F 20.3 °F 30.14 in WNW 8.0 mph 16.0 mph 71% 0.00 in
10:29 28.3 °F 20.1 °F 30.14 in WNW 9.0 mph 16.0 mph 71% 0.00 in
10:34 28.2 °F 20.3 °F 30.14 in NW 6.0 mph 16.0 mph 72% 0.00 in
10:39 28.2 °F 20.3 °F 30.15 in WNW 6.0 mph 14.0 mph 72% 0.00 in
10:44 28.7 °F 20.5 °F 30.15 in WNW 8.0 mph 14.0 mph 71% 0.00 in
10:49 28.8 °F 20.2 °F 30.15 in West 9.0 mph 15.0 mph 70% 0.00 in
10:54 28.8 °F 20.2 °F 30.15 in WNW 8.0 mph 17.0 mph 70% 0.00 in
10:59 28.8 °F 19.9 °F 30.15 in WNW 9.0 mph 17.0 mph 69% 0.00 in
11:04 29.0 °F 20.8 °F 30.15 in WNW 9.0 mph 19.0 mph 71% 0.00 in
11:09 29.3 °F 21.1 °F 30.15 in NNW 8.0 mph 19.0 mph 71% 0.00 in
11:14 29.0 °F 20.1 °F 30.15 in WNW 9.0 mph 16.0 mph 69% 0.00 in
11:19 29.6 °F 21.0 °F 30.15 in WNW 9.0 mph 16.0 mph 70% 0.00 in
11:24 30.6 °F 21.3 °F 30.15 in WNW 7.0 mph 15.0 mph 68% 0.00 in
11:29 30.5 °F 20.8 °F 30.15 in WNW 6.0 mph 15.0 mph 67% 0.00 in
11:34 30.8 °F 21.5 °F 30.16 in WNW 7.0 mph 15.0 mph 68% 0.00 in
11:39 30.2 °F 21.6 °F 30.15 in WNW 4.0 mph 12.0 mph 70% 0.01 in
11:44 30.6 °F 21.6 °F 30.15 in West 6.0 mph 14.0 mph 69% 0.01 in
11:49 29.9 °F 20.6 °F 30.15 in NNW 6.0 mph 18.0 mph 68% 0.01 in
11:54 30.0 °F 21.1 °F 30.15 in West 9.0 mph 12.0 mph 69% 0.01 in
11:59 29.9 °F 21.0 °F 30.15 in NW 7.0 mph 13.0 mph 69% 0.01 in
12:04 29.7 °F 20.4 °F 30.15 in NW 4.0 mph 12.0 mph 68% 0.01 in
12:09 30.0 °F 21.1 °F 30.15 in WNW 13.0 mph 13.0 mph 69% 0.01 in
12:14 29.7 °F 20.1 °F 30.15 in NW 6.0 mph 15.0 mph 67% 0.01 in
12:19 29.5 °F 20.2 °F 30.15 in NW 11.0 mph 18.0 mph 68% 0.01 in
12:24 29.3 °F 20.4 °F 30.15 in NW 7.0 mph 18.0 mph 69% 0.01 in
12:29 29.1 °F 20.2 °F 30.15 in NW 7.0 mph 15.0 mph 69% 0.01 in
12:34 29.1 °F 20.2 °F 30.15 in WNW 7.0 mph 15.0 mph 69% 0.01 in
12:39 29.0 °F 20.4 °F 30.15 in NNW 6.0 mph 15.0 mph 70% 0.00 in
12:44 29.2 °F 20.6 °F 30.14 in WSW 6.0 mph 16.0 mph 70% 0.00 in
12:49 29.5 °F 20.9 °F 30.15 in West 9.0 mph 16.0 mph 70% 0.00 in
12:54 29.9 °F 21.6 °F 30.15 in WNW 7.0 mph 16.0 mph 71% 0.00 in
12:59 29.2 °F 21.0 °F 30.15 in WNW 8.0 mph 16.0 mph 71% 0.00 in
13:04 28.9 °F 21.3 °F 30.14 in WNW 8.0 mph 15.0 mph 73% 0.00 in
13:09 29.2 °F 21.9 °F 30.15 in WNW 7.0 mph 15.0 mph 74% 0.01 in
13:14 29.0 °F 21.7 °F 30.14 in WNW 7.0 mph 14.0 mph 74% 0.01 in
13:19 28.7 °F 21.5 °F 30.15 in NW 7.0 mph 14.0 mph 74% 0.01 in
13:24 28.8 °F 21.9 °F 30.15 in West 6.0 mph 14.0 mph 75% 0.01 in
13:29 28.8 °F 21.2 °F 30.14 in WNW 7.0 mph 15.0 mph 73% 0.01 in
13:34 28.9 °F 21.3 °F 30.14 in WNW 8.0 mph 15.0 mph 73% 0.01 in
13:39 28.6 °F 21.0 °F 30.14 in WNW 8.0 mph 14.0 mph 73% 0.01 in
13:44 28.7 °F 20.8 °F 30.14 in West 6.0 mph 14.0 mph 72% 0.01 in
13:49 28.7 °F 21.5 °F 30.14 in West 8.0 mph 12.0 mph 74% 0.01 in
13:54 28.7 °F 20.8 °F 30.14 in West 11.0 mph 19.0 mph 72% 0.01 in
13:59 28.8 °F 21.2 °F 30.14 in West 6.0 mph 15.0 mph 73% 0.01 in
14:04 29.0 °F 20.8 °F 30.14 in WNW 8.0 mph 16.0 mph 71% 0.01 in
14:09 28.7 °F 20.8 °F 30.14 in WNW 10.0 mph 16.0 mph 72% 0.00 in
14:14 28.6 °F 20.7 °F 30.14 in WNW 9.0 mph 16.0 mph 72% 0.00 in
14:19 28.9 °F 20.7 °F 30.14 in WNW 7.0 mph 15.0 mph 71% 0.00 in
14:24 28.9 °F 19.7 °F 30.14 in WNW 7.0 mph 18.0 mph 68% 0.00 in
14:29 28.8 °F 19.6 °F 30.14 in WNW 8.0 mph 21.0 mph 68% 0.00 in
14:34 28.8 °F 19.9 °F 30.14 in NW 7.0 mph 17.0 mph 69% 0.00 in
14:39 28.9 °F 20.3 °F 30.14 in WNW 9.0 mph 18.0 mph 70% 0.00 in
14:44 28.9 °F 20.0 °F 30.14 in NNW 8.0 mph 16.0 mph 69% 0.00 in
14:49 29.0 °F 20.4 °F 30.14 in WNW 8.0 mph 16.0 mph 70% 0.00 in
14:54 29.0 °F 20.8 °F 30.15 in WNW 5.0 mph 14.0 mph 71% 0.00 in
14:59 29.1 °F 20.9 °F 30.14 in WNW 7.0 mph 13.0 mph 71% 0.00 in
15:04 29.3 °F 21.4 °F 30.14 in NNW 6.0 mph 12.0 mph 72% 0.00 in
15:09 29.3 °F 21.4 °F 30.14 in WNW 5.0 mph 16.0 mph 72% 0.00 in
15:14 29.4 °F 21.5 °F 30.14 in WNW 6.0 mph 16.0 mph 72% 0.00 in
15:19 29.2 °F 21.3 °F 30.14 in WNW 6.0 mph 14.0 mph 72% 0.00 in
15:24 29.3 °F 21.4 °F 30.14 in WNW 5.0 mph 13.0 mph 72% 0.00 in
15:29 29.3 °F 21.7 °F 30.14 in West 6.0 mph 9.0 mph 73% 0.00 in
15:34 29.2 °F 21.3 °F 30.14 in WNW 6.0 mph 12.0 mph 72% 0.00 in
15:39 29.0 °F 21.1 °F 30.14 in West 7.0 mph 13.0 mph 72% 0.00 in
15:44 28.9 °F 21.0 °F 30.14 in West 4.0 mph 10.0 mph 72% 0.00 in
15:49 29.0 °F 21.4 °F 30.14 in West 2.0 mph 9.0 mph 73% 0.00 in
15:54 29.2 °F 21.6 °F 30.13 in West 4.0 mph 9.0 mph 73% 0.00 in
15:59 29.2 °F 21.3 °F 30.13 in West 4.0 mph 9.0 mph 72% 0.00 in
16:04 29.2 °F 21.3 °F 30.13 in West 6.0 mph 11.0 mph 72% 0.00 in
16:09 29.2 °F 21.3 °F 30.13 in WNW 10.0 mph 13.0 mph 72% 0.00 in
16:14 29.2 °F 21.3 °F 30.13 in West 8.0 mph 13.0 mph 72% 0.00 in
16:19 29.3 °F 21.4 °F 30.13 in West 7.0 mph 10.0 mph 72% 0.00 in
16:24 29.4 °F 21.8 °F 30.12 in WSW 5.0 mph 7.0 mph 73% 0.00 in
16:29 29.4 °F 21.5 °F 30.12 in West 4.0 mph 7.0 mph 72% 0.00 in
16:34 29.4 °F 21.5 °F 30.12 in West 8.0 mph 10.0 mph 72% 0.00 in
16:39 29.4 °F 21.8 °F 30.12 in West 4.0 mph 8.0 mph 73% 0.00 in
16:44 29.5 °F 21.9 °F 30.12 in West 5.0 mph 8.0 mph 73% 0.00 in
16:49 29.6 °F 22.0 °F 30.12 in NNW 3.0 mph 6.0 mph 73% 0.00 in
16:54 29.5 °F 21.9 °F 30.12 in WNW 5.0 mph 8.0 mph 73% 0.00 in
16:59 29.4 °F 21.8 °F 30.12 in West 4.0 mph 6.0 mph 73% 0.00 in
17:04 29.4 °F 22.1 °F 30.12 in WNW 3.0 mph 6.0 mph 74% 0.00 in
17:09 29.4 °F 22.1 °F 30.12 in NNW 2.0 mph 5.0 mph 74% 0.00 in
17:14 29.4 °F 21.8 °F 30.12 in NW 1.0 mph 6.0 mph 73% 0.00 in
17:19 29.4 °F 21.8 °F 30.12 in West 1.0 mph 6.0 mph 73% 0.00 in
17:24 29.5 °F 21.9 °F 30.12 in WSW 4.0 mph 7.0 mph 73% 0.00 in
17:29 29.4 °F 21.8 °F 30.12 in WSW 2.0 mph 7.0 mph 73% 0.00 in
17:34 29.5 °F 21.9 °F 30.12 in West 3.0 mph 7.0 mph 73% 0.00 in
17:39 29.5 °F 21.9 °F 30.11 in West 3.0 mph 8.0 mph 73% 0.00 in
17:44 29.6 °F 22.0 °F 30.12 in West 3.0 mph 8.0 mph 73% 0.00 in
17:49 29.6 °F 22.0 °F 30.12 in West 3.0 mph 7.0 mph 73% 0.00 in
17:54 29.5 °F 21.9 °F 30.11 in West 3.0 mph 7.0 mph 73% 0.00 in
17:59 29.6 °F 22.0 °F 30.11 in West 5.0 mph 6.0 mph 73% 0.00 in
18:04 29.6 °F 22.0 °F 30.11 in West 3.0 mph 5.0 mph 73% 0.00 in
18:09 29.7 °F 21.8 °F 30.11 in West 3.0 mph 5.0 mph 72% 0.00 in
18:14 29.7 °F 21.8 °F 30.11 in WNW 4.0 mph 6.0 mph 72% 0.00 in
18:19 29.7 °F 22.1 °F 30.11 in NNW 3.0 mph 6.0 mph 73% 0.00 in
18:24 29.8 °F 22.2 °F 30.11 in West 2.0 mph 6.0 mph 73% 0.00 in
18:29 29.8 °F 22.2 °F 30.11 in WNW 3.0 mph 6.0 mph 73% 0.00 in
18:34 29.8 °F 22.2 °F 30.11 in WSW 2.0 mph 5.0 mph 73% 0.00 in
18:39 29.8 °F 22.2 °F 30.11 in WSW 3.0 mph 7.0 mph 73% 0.00 in
18:44 29.9 °F 22.3 °F 30.11 in West 2.0 mph 6.0 mph 73% 0.00 in
18:49 30.0 °F 22.4 °F 30.11 in West 3.0 mph 7.0 mph 73% 0.00 in
18:54 30.1 °F 22.5 °F 30.10 in West 5.0 mph 8.0 mph 73% 0.00 in
18:59 30.2 °F 22.6 °F 30.10 in West 5.0 mph 9.0 mph 73% 0.00 in
19:04 30.1 °F 22.5 °F 30.10 in West 6.0 mph 7.0 mph 73% 0.00 in
19:09 30.2 °F 22.3 °F 30.10 in West 3.0 mph 10.0 mph 72% 0.00 in
19:14 30.2 °F 22.3 °F 30.10 in West 5.0 mph 12.0 mph 72% 0.00 in
19:19 30.2 °F 22.3 °F 30.10 in West 5.0 mph 12.0 mph 72% 0.00 in
19:24 30.2 °F 22.3 °F 30.11 in West 4.0 mph 10.0 mph 72% 0.00 in
19:29 30.1 °F 22.2 °F 30.10 in WNW 4.0 mph 8.0 mph 72% 0.00 in
19:34 30.1 °F 22.2 °F 30.10 in West 4.0 mph 9.0 mph 72% 0.00 in
19:39 30.0 °F 22.1 °F 30.10 in West 4.0 mph 10.0 mph 72% 0.00 in
19:44 30.0 °F 21.7 °F 30.10 in WSW 8.0 mph 13.0 mph 71% 0.00 in
19:49 29.9 °F 21.6 °F 30.10 in West 5.0 mph 13.0 mph 71% 0.00 in
19:54 29.9 °F 21.6 °F 30.10 in West 5.0 mph 12.0 mph 71% 0.00 in
19:59 29.9 °F 21.6 °F 30.10 in West 5.0 mph 12.0 mph 71% 0.00 in
20:04 29.9 °F 21.6 °F 30.10 in West 5.0 mph 10.0 mph 71% 0.00 in
20:09 29.8 °F 21.9 °F 30.10 in West 5.0 mph 10.0 mph 72% 0.00 in
20:14 29.8 °F 21.9 °F 30.10 in West 5.0 mph 10.0 mph 72% 0.00 in
20:19 29.7 °F 21.8 °F 30.10 in West 5.0 mph 9.0 mph 72% 0.00 in
20:24 29.6 °F 21.7 °F 30.10 in WSW 7.0 mph 8.0 mph 72% 0.00 in
20:29 29.6 °F 21.7 °F 30.10 in West 6.0 mph 9.0 mph 72% 0.00 in
20:34 29.5 °F 21.6 °F 30.10 in WSW 8.0 mph 14.0 mph 72% 0.00 in
20:39 29.5 °F 21.6 °F 30.09 in West 5.0 mph 10.0 mph 72% 0.00 in
20:44 29.4 °F 21.5 °F 30.09 in WNW 2.0 mph 9.0 mph 72% 0.00 in
20:49 29.2 °F 21.3 °F 30.09 in West 5.0 mph 12.0 mph 72% 0.00 in
20:54 29.0 °F 21.1 °F 30.10 in West 3.0 mph 8.0 mph 72% 0.00 in
20:59 28.9 °F 21.0 °F 30.10 in West 4.0 mph 10.0 mph 72% 0.00 in
21:04 28.9 °F 21.0 °F 30.10 in West 5.0 mph 11.0 mph 72% 0.00 in
21:09 28.8 °F 20.9 °F 30.10 in West 5.0 mph 11.0 mph 72% 0.00 in
21:14 28.7 °F 20.8 °F 30.09 in West 4.0 mph 8.0 mph 72% 0.00 in
21:19 28.4 °F 20.5 °F 30.09 in West 3.0 mph 7.0 mph 72% 0.00 in
21:29 28.1 °F 20.2 °F 30.09 in WSW 3.0 mph 5.0 mph 72% 0.00 in
21:34 27.9 °F 20.4 °F 30.09 in West 3.0 mph 6.0 mph 73% 0.00 in
21:39 27.8 °F 20.3 °F 30.09 in West 2.0 mph 5.0 mph 73% 0.00 in
21:44 27.7 °F 20.2 °F 30.09 in West 5.0 mph 6.0 mph 73% 0.00 in
21:49 27.5 °F 20.0 °F 30.09 in West 3.0 mph 5.0 mph 73% 0.00 in
21:54 27.4 °F 20.2 °F 30.08 in WSW 2.0 mph 4.0 mph 74% 0.00 in
21:59 27.4 °F 20.2 °F 30.08 in West 1.0 mph 4.0 mph 74% 0.00 in
22:04 27.1 °F 19.9 °F 30.08 in WSW 2.0 mph 4.0 mph 74% 0.00 in
22:09 27.2 °F 20.0 °F 30.08 in West 4.0 mph 4.0 mph 74% 0.00 in
22:14 27.1 °F 20.2 °F 30.08 in West 2.0 mph 5.0 mph 75% 0.00 in
22:19 26.9 °F 20.0 °F 30.08 in West 2.0 mph 5.0 mph 75% 0.00 in
22:24 27.0 °F 20.1 °F 30.07 in West 2.0 mph 7.0 mph 75% 0.00 in
22:29 27.0 °F 20.1 °F 30.07 in West 2.0 mph 7.0 mph 75% 0.00 in
22:34 26.9 °F 20.0 °F 30.07 in West 2.0 mph 3.0 mph 75% 0.00 in
22:39 26.9 °F 20.3 °F 30.07 in West 2.0 mph 4.0 mph 76% 0.00 in
22:44 26.7 °F 20.1 °F 30.07 in West 2.0 mph 4.0 mph 76% 0.00 in
22:49 26.7 °F 20.1 °F 30.07 in West 2.0 mph 5.0 mph 76% 0.00 in
22:54 26.5 °F 20.0 °F 30.07 in West 2.0 mph 5.0 mph 76% 0.00 in
22:59 26.4 °F 20.2 °F 30.06 in West 1.0 mph 4.0 mph 77% 0.00 in
23:04 26.4 °F 20.2 °F 30.06 in West 1.0 mph 3.0 mph 77% 0.00 in
23:09 26.4 °F 20.2 °F 30.06 in WSW 1.0 mph 3.0 mph 77% 0.00 in
23:14 26.2 °F 20.0 °F 30.05 in WSW 1.0 mph 3.0 mph 77% 0.00 in
23:19 25.9 °F 20.0 °F 30.05 in WSW 1.0 mph 2.0 mph 78% 0.00 in
23:24 25.4 °F 19.8 °F 30.05 in WSW 1.0 mph 2.0 mph 79% 0.00 in
23:29 25.1 °F 19.5 °F 30.05 in Calm   1.0 mph 79% 0.00 in
23:34 24.9 °F 19.6 °F 30.05 in Calm   1.0 mph 80% 0.00 in
23:39 24.7 °F 19.7 °F 30.04 in WSW 1.0 mph 1.0 mph 81% 0.00 in
23:44 24.5 °F 19.5 °F 30.04 in WSW 1.0 mph 2.0 mph 81% 0.00 in
23:49 24.2 °F 19.2 °F 30.03 in Calm   2.0 mph 81% 0.00 in
23:54 24.0 °F 19.3 °F 30.03 in Calm   3.0 mph 82% 0.00 in
23:59 23.8 °F 19.4 °F 30.04 in Calm   1.0 mph 83% 0.00 in
Buffalo, New York, USA
Compliments of Weather Underground - 2.5 mb